Regional Weather Roundup
Issued by NWS

Home | Current Version | Previous Version | Graphics & Text | Print | Product List | Glossary On
Versions: 1 2 3 4 5 6 7 8 9 10 11 12 13 14 15 16 17 18 19 20 21 22 23 24 25 26 27 28 29 30 31 32 33 34 35 36 37 38 39 40 41 42 43 44 45 46 47 48 49 50
000
ASUS43 KMKX 261000
RWRWI

WISCONSIN REGIONAL WEATHER ROUNDUP
NATIONAL WEATHER SERVICE MILWAUKEE/SULLIVAN WI
500 AM CDT SAT JUL 26 2014

NOTE: "FAIR" INDICATES FEW OR NO CLOUDS BELOW 12,000 FEET WITH NO
SIGNIFICANT WEATHER AND/OR OBSTRUCTIONS TO VISIBILITY.

WIZ001-002-006>008-014>016-023>028-261100-
NORTHWEST WISCONSIN

CITY           SKY/WX    TMP DP  RH WIND       PRES   REMARKS
SUPERIOR ARPT  CLEAR     67  67  98 SW5       29.75S
ASHLAND        PTCLDY    69  66  90 SW8       29.75F
HAYWARD        CLOUDY    69  68  96 SW6       29.79S
SIREN          PTCLDY    68  67  96 SW5       29.79S
RICE LAKE      CLOUDY    69  67  92 S3        29.82S
LADYSMITH      CLOUDY    68  66  93 SW7       29.82F
EAU CLAIRE     CLOUDY    69  67  93 SW7       29.80S
MENOMONIE      CLOUDY    69  67  94 S6        29.81S
NEW RICHMOND   MOCLDY    70  69  98 SW7       29.81R FOG
OSCEOLA        CLOUDY    71  71 100 SW3       29.81F
$$

WIZ003>005-009-010-017-018-261100-
NORTH CENTRAL WISCONSIN

CITY           SKY/WX    TMP DP  RH WIND       PRES   REMARKS
WOODRUFF       RAIN      64  62  93 SW5       29.81F
RHINELANDER    CLOUDY    63  63 100 SW5       29.83S FOG
EAGLE RIVER    DRIZZLE   64  64 100 SW5       29.82S
LAND O LAKES   CLOUDY    66  63  91 SW5       29.82S
PHILLIPS       CLOUDY    65  65  99 SW6       29.80S
TOMAHAWK       CLOUDY    64  62  94 CALM      29.83S FOG
MEDFORD        CLOUDY    64  64  97 SW7       29.83S FOG
MERRILL        CLOUDY    64  64  97 SW3       29.83S
$$

WIZ029-030-035-036-043>047-261100-
CENTRAL WISCONSIN

CITY           SKY/WX    TMP DP  RH WIND       PRES   REMARKS
WAUSAU         CLOUDY    65  62  90 SW5       29.82S
MOSINEE        CLOUDY    63  63 100 SW3       29.84S
MARSHFIELD     LGT RAIN  66  64  93 SW6       29.83S
STEVENS POINT  CLOUDY    62  60  94 CALM      29.84S
WAUPACA        MOCLDY    65  63  91 CALM      29.84S
WAUTOMA        NOT AVBL
WISC RAPIDS    CLOUDY    66  63  90 CALM      29.84R
CAMP DOUGLAS   NOT AVBL
$$

WIZ011>013-019>022-031-037>040-048>050-261100-
NORTHEAST WISCONSIN

CITY           SKY/WX    TMP DP  RH WIND       PRES   REMARKS
ANTIGO         CLOUDY    63  62  96 W3        29.85R
STURGEON BAY   CLOUDY    64  61  88 SW3       29.83S
GREEN BAY      CLOUDY    65  63  93 W3        29.83R
MANITOWOC      NOT AVBL
APPLETON       CLOUDY    64  63  94 SW6       29.84S
CLINTONVILLE   CLOUDY    64  61  88 SW3       29.83F
OSHKOSH        CLOUDY    64  61  90 S8        29.82F
$$

WIZ032>034-041-042-053>061-261100-
SOUTHWEST WISCONSIN

CITY           SKY/WX    TMP DP  RH WIND       PRES   REMARKS
LA CROSSE      CLOUDY    69  65  86 SW6       29.82S
SPARTA         CLOUDY    66  63  91 CALM      29.83F
VIROQUA        CLOUDY    64  64 100 CALM      29.85R
BOSCOBEL       CLOUDY    67  62  84 CALM      29.84S
PRAIRIE DU CHI CLOUDY    66  62  87 CALM      29.82S
PLATTEVILLE    CLOUDY    65  63  91 E3        29.85S
$$

WIZ056-057-062-063-064-067-068-261100-
SOUTH CENTRAL WISCONSIN

CITY           SKY/WX    TMP DP  RH WIND       PRES   REMARKS
BARABOO/DELLS  CLOUDY    65  60  85 SW6       29.84S
LONE ROCK      NOT AVBL
WATERTOWN      CLOUDY    61  60  97 CALM      29.85S
MADISON        CLOUDY    67  61  81 CALM      29.84F
MIDDLETON      CLOUDY    66  63  88 CALM      29.85F
MONROE         CLOUDY    64  61  88 S5        29.85F
JANESVILLE     CLOUDY    68  59  73 SW3       29.85S
$$

WIZ051-052-058>065-066-070>072-261100-
SOUTHEAST WISCONSIN

CITY           SKY/WX    TMP DP  RH WIND       PRES   REMARKS
MILWAUKEE      PTCLDY    63  58  83 S3        29.85F
WAUKESHA       PTCLDY    59  55  88 CALM      29.86F
MILWAUKEE/TIMM CLEAR     61  55  82 CALM      29.85F
RACINE         PTCLDY    60  58  92 CALM      29.86F
BURLINGTON     CLOUDY    59  58  98 CALM      29.85F
KENOSHA        CLOUDY    63  60  90 CALM      29.85F
FOND DU LAC    MOCLDY    63  60  90 S6        29.83F
SHEBOYGAN      MOCLDY    62  59  90 SW5       29.84S
WEST BEND      CLEAR     61  55  82 CALM      29.85S
JUNEAU         CLEAR     60  58  92 S5        29.86F FOG
$$

LSZ147-162-261100-
LAKE SUPERIOR

STATION/POSITION TIME  TEMP    WIND        PRES    WAVE
                       AIR SEA DIR/SP/G            HT/PER
                 (UTC) (F)     (DEG/KT/KT) (MB)    (FT/S)
W MID LAKE BUOY  0850   53 49  170/  8/  8 1006.8F   0
PORT WING        0940   70     200/  6/  8 1007.1F
SAXON HARBOR     0900          200/  4/  7 1007.5F
$$

LMZ867-665-643>646-261100-
LAKE MICHIGAN

STATION/POSITION TIME  TEMP    WIND        PRES    WAVE
                       AIR SEA DIR/SP/G            HT/PER
                 (UTC) (F)     (DEG/KT/KT) (MB)    (FT/S)
N MID LAKE BUOY  0850   60 57  220/  8/ 10 1009.0F   2/ 5
NORTHPORT PIER   0900   62      CALM  /  5 1009.8S
KEWAUNEE LAKESHO 0900   53     180/  6/  7 1010.8F
SHEBOYGAN LAKESH 0900   66     220/  6/  7 1010.6F
PORT WASHINGTON  0900   64     250/  3/  4 1011.2F
ATWATER BUOY     0900   64     230/  6     1012.0F
MILWAUKEE LAKESH 0900   65     220/  7/  8   N/A
S MID LAKE BUOY  0850   63 61  190/  6/  8 1011.6F   1
KENOSHA   LAKESH 0900   65     220/  3/  3 1011.2S
$$

TC  - TEMPERATURE IN CELSIUS
VSB - VISIBILITY IN STATUTE MILES
WCI - WIND CHILL INDEX
HX  - HEAT INDEX



USA.gov is the U.S. government's official web portal to all federal, state and local government web resources and services.